格洛纳斯-765 COSMOS 2307 [GLONASS]

导读

COSMOS 2307是独联体(CIS)发射的一颗GLONASS全球导航卫星,于1995年3月7日发射入轨,属于苏联/俄罗斯研制的GLONASS导航星座成员。该卫星遵循GLONASS系统设计标准,运行在约19100公里的中圆地球轨道,采用频分多址技术提供导航信号,搭载精密铯钟作为频率基准,为军民用户提供定位授时服务,设计轨道寿命5年,对维持早期GLONASS系统组网运行发挥了作用。

基本信息
目录编号:
23511
目录名称:
COSMOS 2307 (GLONASS)
国际标识:
1995-009A
轨道中心:
EARTH
卫星名称:
格洛纳斯-765
卫星全名:
格洛纳斯-765 COSMOS 2307 [GLONASS]
卫星状态:
在轨 (已飞行11465 天)
发射日期:
1995-03-07 UTC
国别 :
俄罗斯(独联体) (CIS)
星等 :
--
轨道信息
数据来源 国际轨道数据 AOE轨道数据
星历时间 2026-07-26T13:36:09+0800
1天前
查看轨道信息
2026-07-25T04:00:00+0800
3天前
查看轨道信息
半长轴 25507.714km 25507.73km
偏心率 0.0006329 0.0006402
轨道倾角 63.988° 63.989°
近地点辐角 136.364° 135.976°
升交点赤经 299.848° 299.898°
平近点角 221.682° 227.937°
近地点 19113.433km 19113.262km
远地点 19145.721km 19145.924km
周期 675.720分钟 675.721分钟
每日圈数 2.131059 2.131057
详细信息
平衡模式:
三轴稳定
覆盖范围:
全球
运营商:
列舍特涅夫卫星信息系统
运营商所在国:
俄罗斯
制造商(研发单位):
列舍特涅夫卫星信息系统
制造商所在国:
俄罗斯
使用方式:
暂无
卫星简介
格洛纳斯(GLONASS )是苏联/俄罗斯研制卫星导航系统。标准配置为24颗卫星,其中18颗卫星就能保证该系统为俄罗斯境内用户提供全部服务。该卫星已退役。
2D轨道图
3D轨道图
轨道高度分析图
轨道倾角分析图
轨道综合分析图
查看轨道综合分析图